CW9736 Weather Reports


Display with metric or nautical units.
time (UTC)temp
F
wind
direction
speed
MPH
gust
MPH
rain 1hr
in
rain 24hr
in
rain mn
in
humidity
%
barometer
mb
20220119101532 52 309 0.0 0.0 0.00 0.00 0.00 90 1018.6
20220119100039 52 308 0.0 0.0 0.00 0.00 0.00 89 1018.9
20220119094513 53 308 0.0 0.0 0.00 0.00 0.00 89 1018.9
20220119093020 53 308 0.0 0.0 0.00 0.00 0.00 89 1018.9
20220119091513 53 308 0.0 0.0 0.00 0.00 0.00 89 1018.8
20220119090036 54 308 0.0 0.0 0.00 0.00 0.00 88 1018.8
20220119084505 54 308 0.0 0.0 0.00 0.00 0.00 88 1018.6
20220119083003 55 309 0.0 0.0 0.00 0.00 0.00 88 1018.6
20220119081630 55 309 0.0 0.0 0.00 0.00 0.00 88 1018.7
20220119080212 55 308 0.0 0.0 0.00 0.00 0.00 88 1018.9
20220119074611 56 309 0.0 0.0 0.00 0.00 0.00 88 1019.1
20220119073212 56 309 0.0 0.0 0.00 0.00 0.00 88 1018.9
20220119071833 56 308 0.0 0.0 0.00 0.00 0.00 88 1018.9
20220119070155 56 308 0.0 0.0 0.00 0.00 0.00 88 1019.3
20220119064609 56 309 0.0 0.0 0.00 0.00 0.00 87 1019.1
20220119063130 56 308 0.0 0.0 0.00 0.00 0.00 87 1019.2
20220119061613 56 308 0.0 0.0 0.00 0.00 0.00 87 1019.1
20220119060108 56 309 0.0 0.0 0.00 0.00 0.00 87 1019.0
20220119054712 57 309 0.0 0.0 0.00 0.00 0.00 86 1019.0
20220119053108 57 309 0.0 0.0 0.00 0.00 0.00 86 1018.9
20220119051632 57 308 0.0 0.0 0.00 0.00 0.00 85 1018.9
20220119050155 57 308 0.0 0.0 0.00 0.00 0.00 84 1018.6
20220119044549 57 308 0.0 0.0 0.00 0.00 0.00 84 1018.5
20220119043103 58 308 0.0 0.0 0.00 0.00 0.00 83 1018.3
20220119041556 58 309 0.0 0.0 0.00 0.00 0.00 83 1018.2
20220119040114 58 309 0.0 0.0 0.00 0.00 0.00 82 1018.0
20220119034542 58 309 0.0 0.0 0.00 0.00 0.00 81 1017.8
20220119033058 59 308 0.0 0.0 0.00 0.00 0.00 81 1017.9
20220119031551 59 308 0.0 0.0 0.00 0.00 0.00 80 1017.6
20220119030040 60 308 0.0 0.0 0.00 0.00 0.00 79 1017.5
20220119024556 60 308 0.0 0.0 0.00 0.00 0.00 78 1017.4
20220119023046 60 308 0.0 0.0 0.00 0.00 0.00 77 1017.2
20220119021555 60 306 0.0 0.0 0.00 0.00 0.00 76 1017.1
20220119020143 61 302 0.0 0.0 0.00 0.00 0.00 75 1017.0
20220119014535 61 298 0.0 5.0 0.00 0.00 0.00 75 1016.9
20220119013058 61 296 0.0 7.0 0.00 0.00 0.00 74 1016.7
20220119011546 62 294 0.0 7.0 0.00 0.00 0.00 73 1016.7
20220119010117 62 294 0.0 0.0 0.00 0.00 0.00 73 1016.6
20220119004535 62 336 0.0 0.0 0.00 0.00 0.00 73 1016.5
20220119003103 62 211 0.0 0.0 0.00 0.00 0.00 73 1016.6
20220119001613 62 210 0.0 4.0 0.00 0.00 0.00 73 1016.6
20220119000058 62 208 0.0 0.0 0.00 0.00 0.00 73 1016.5
20220118234541 62 205 1.0 8.0 0.00 0.00 0.00 71 1016.5
20220118233034 63 225 5.0 11.0 0.00 0.00 0.00 71 1016.6
20220118231535 64 242 5.0 14.0 0.00 0.00 0.00 69 1016.3
20220118230039 65 230 3.0 12.0 0.00 0.00 0.00 68 1016.3
20220118224557 65 238 3.0 9.0 0.00 0.00 0.00 67 1015.8
20220118223045 66 275 0.0 9.0 0.00 0.00 0.00 66 1015.8
20220118221533 66 228 5.0 10.0 0.00 0.00 0.00 68 1015.8
20220118220057 65 229 4.0 9.0 0.00 0.00 0.00 69 1015.9
20220118214540 65 236 2.0 8.0 0.00 0.02 0.00 69 1015.9
20220118213030 65 180 0.0 9.0 0.00 0.02 0.00 68 1016.0
20220118211625 67 223 2.0 8.0 0.00 0.02 0.00 65 1016.1
20220118210051 67 292 1.0 10.0 0.00 0.02 0.00 63 1016.4
20220118204535 65 238 0.0 6.0 0.00 0.02 0.00 66 1016.3
20220118203102 66 224 0.0 6.0 0.00 0.02 0.00 65 1016.4
20220118201532 67 213 0.0 5.0 0.00 0.02 0.00 64 1016.6
20220118200045 67 177 2.0 6.0 0.00 0.02 0.00 65 1016.6
20220118194535 67 182 3.0 8.0 0.00 0.03 0.00 65 1016.8
20220118193034 67 207 0.0 6.0 0.00 0.03 0.00 67 1016.8
20220118191525 65 281 0.0 1.0 0.00 0.03 0.00 70 1017.2
20220118190037 65 286 0.0 0.0 0.00 0.03 0.00 72 1017.4
20220118184516 64 286 0.0 1.0 0.00 0.03 0.00 72 1017.6
20220118183005 64 286 0.0 2.0 0.00 0.03 0.00 74 1017.6
20220118181536 63 197 0.0 0.0 0.00 0.03 0.00 77 1018.0
20220118180138 62 192 0.0 0.0 0.00 0.03 0.00 80 1017.9
20220118174724 61 180 0.0 1.0 0.00 0.04 0.00 83 1017.6
20220118173100 60 173 0.0 0.0 0.00 0.04 0.00 83 1017.8
20220118171615 60 172 0.0 5.0 0.00 0.04 0.00 85 1017.7
20220118170100 60 148 0.0 0.0 0.00 0.04 0.00 88 1017.7
20220118164557 58 148 0.0 0.0 0.00 0.04 0.00 89 1017.6
20220118163111 58 146 0.0 0.0 0.00 0.04 0.00 89 1017.5
20220118161543 57 146 0.0 0.0 0.00 0.04 0.00 89 1017.4
20220118160128 57 160 0.0 0.0 0.00 0.04 0.00 89 1017.5
20220118154714 57 174 0.0 0.0 0.00 0.08 0.00 90 1017.2
20220118153052 56 174 0.0 0.0 0.00 0.08 0.00 90 1017.2
20220118151546 56 162 0.0 0.0 0.00 0.08 0.00 89 1017.0
20220118150035 57 162 0.0 0.0 0.00 0.08 0.00 89 1016.9
20220118144527 57 180 0.0 0.0 0.00 0.08 0.00 89 1016.8
20220118143024 57 188 0.0 0.0 0.00 0.08 0.00 89 1016.7
20220118141523 57 188 0.0 3.0 0.00 0.08 0.00 89 1016.6
20220118140019 57 188 0.0 0.0 0.00 0.08 0.00 89 1016.6
20220118134541 57 188 0.0 0.0 0.00 0.08 0.00 89 1016.5
20220118133030 57 188 0.0 0.0 0.00 0.08 0.00 89 1016.3
20220118131532 57 188 0.0 0.0 0.00 0.08 0.00 89 1016.2
20220118130021 57 188 0.0 0.0 0.00 0.08 0.00 89 1016.3
20220118124520 57 188 0.0 0.0 0.00 0.08 0.00 88 1016.2
20220118123012 57 188 0.0 0.0 0.00 0.08 0.00 88 1016.3
20220118121529 57 188 0.0 0.0 0.00 0.08 0.00 88 1016.0
20220118120016 57 188 0.0 0.0 0.00 0.08 0.00 88 1016.0
20220118114543 57 188 0.0 0.0 0.00 0.08 0.00 88 1015.9
20220118113009 57 188 0.0 0.0 0.00 0.08 0.00 88 1016.1
20220118111541 57 188 0.0 0.0 0.00 0.08 0.00 88 1016.1
20220118110008 57 188 0.0 0.0 0.00 0.08 0.00 88 1016.3
20220118104520 57 188 0.0 0.0 0.00 0.08 0.00 88 1016.2
20220118103009 57 188 0.0 0.0 0.00 0.08 0.00 88 1016.3